Location: Ajisawe
(8.4333°N, 4.3833°E)
Time: 15:24:42
(UTC+00:00)

A-11 Canister half - Visible Passes

Search period start: 19 April 2021 00:00
Search period end: 29 April 2021 00:00
Orbit: 1515 x 1685 km, 47.2° (Epoch: 18 April)

Date Brightness Start Highest point End Pass type
(mag) Time Alt. Az. Time Alt. Az. Time Alt. Az.
19 Apr 11.1 03:17:30 10° N 03:24:46 22° NE 03:32:02 10° E visible
19 Apr 9.1 18:16:19 10° SW 18:25:35 85° NW 18:34:57 10° NE visible
19 Apr 11.1 20:25:17 10° W 20:31:04 18° NW 20:36:57 10° N visible
20 Apr 11.1 02:54:52 10° N 03:01:43 20° NE 03:08:35 10° E visible
20 Apr 9.3 04:57:10 10° NW 05:07:20 87° NE 05:17:32 10° SE visible
20 Apr 9.0 17:53:26 10° SW 18:02:42 88° SE 18:12:03 10° NE visible
20 Apr 11.0 20:01:51 10° W 20:08:03 20° NW 20:14:22 10° N visible
21 Apr 11.2 02:32:17 10° N 02:38:39 18° NE 02:45:04 10° E visible
21 Apr 9.3 04:34:15 10° NW 04:44:23 81° NE 04:54:35 10° SE visible
21 Apr 11.0 19:38:29 10° W 19:45:03 21° NW 19:51:44 10° N visible
22 Apr 11.2 02:09:45 10° N 02:15:36 17° NE 02:21:28 10° ENE visible
22 Apr 9.3 04:11:21 10° NW 04:21:26 76° NE 04:31:36 10° SE visible
22 Apr 11.0 19:15:09 10° W 19:22:03 23° NW 19:29:05 10° N visible
23 Apr 11.2 01:47:16 10° N 01:52:31 15° NE 01:57:47 10° ENE visible
23 Apr 9.4 03:48:28 10° NNW 03:58:29 70° NE 04:08:36 10° SE visible
23 Apr 10.9 18:51:51 10° W 18:59:04 25° NW 19:06:24 10° N visible
24 Apr 11.3 01:24:54 10° N 01:29:26 14° NE 01:33:59 10° ENE visible
24 Apr 9.4 03:25:35 10° NNW 03:35:31 65° NE 03:45:35 10° SE visible
24 Apr 10.9 18:28:37 10° W 18:36:06 28° NW 18:43:42 10° NNE visible
25 Apr 11.3 01:02:41 10° NNE 01:06:20 12° NE 01:10:01 10° ENE visible
25 Apr 9.5 03:02:43 10° NNW 03:12:33 60° NE 03:22:32 10° SE visible
25 Apr 10.9 18:05:23 10° WSW 18:13:08 30° NW 18:20:59 10° NNE visible
26 Apr 11.3 00:40:46 10° NNE 00:43:13 11° NE 00:45:42 10° NE visible
26 Apr 9.6 02:39:53 10° NNW 02:49:36 55° NE 02:59:28 10° SE visible
26 Apr 9.7 04:45:40 10° WNW 04:54:26 34° SW 05:03:17 10° S visible
27 Apr 9.7 02:17:03 10° NNW 02:26:38 51° NE 02:36:23 10° ESE visible
27 Apr 9.5 04:22:30 10° WNW 04:31:29 37° SW 04:40:35 10° SSE visible
28 Apr 9.8 02:03:54 47° NE 02:03:54 47° NE 02:13:16 10° ESE visible
28 Apr 9.4 04:02:23 21° WNW 04:08:32 41° SW 04:17:51 10° SSE visible
